GW1920 Weather Reports


Display with metric or nautical units.
time (UTC)temp
F
wind
direction
speed
MPH
gust
MPH
rain 1hr
in
rain 24hr
in
rain mn
in
humidity
%
barometer
mb
20260507114643 51 354 0.0 0.0 0.00 0.00 0.00 99 1014.3
20260507114140 51 354 0.0 0.0 0.00 0.00 0.00 99 1014.2
20260507113637 51 354 0.0 0.0 0.00 0.00 0.00 99 1014.3
20260507113134 51 354 0.0 0.0 0.00 0.00 0.00 99 1014.4
20260507112632 51 354 0.0 0.0 0.00 0.00 0.00 99 1014.2
20260507112128 51 354 0.0 0.0 0.00 0.00 0.00 99 1014.5
20260507111626 51 354 0.0 0.0 0.00 0.00 0.00 99 1014.6
20260507111122 51 354 0.0 0.0 0.00 0.00 0.00 99 1014.5
20260507110618 51 354 0.0 0.0 0.00 0.00 0.00 99 1014.5
20260507110115 51 354 0.0 0.0 0.00 0.00 0.00 99 1014.5
20260507105612 51 354 0.0 0.0 0.00 0.00 0.00 99 1014.5
20260507105108 52 354 0.0 0.0 0.00 0.00 0.00 99 1014.6
20260507104606 51 354 0.0 0.0 0.00 0.00 0.00 99 1014.6
20260507104102 51 354 0.0 0.0 0.00 0.00 0.00 99 1014.7
20260507103558 51 354 0.0 0.0 0.00 0.00 0.00 99 1014.8
20260507103055 52 354 0.0 0.0 0.00 0.00 0.00 99 1014.9
20260507102551 52 354 0.0 0.0 0.00 0.00 0.00 99 1015.1
20260507102047 52 354 0.0 0.0 0.00 0.00 0.00 99 1015.0
20260507101543 52 354 0.0 0.0 0.00 0.00 0.00 99 1014.9
20260507101039 52 354 0.0 0.0 0.00 0.00 0.00 99 1015.0
20260507100537 52 354 0.0 0.0 0.00 0.00 0.00 99 1014.9
20260507100035 52 354 0.0 0.0 0.00 0.00 0.00 99 1015.0
20260507095533 52 354 0.0 0.0 0.00 0.00 0.00 99 1015.1
20260507095029 52 354 0.0 0.0 0.00 0.00 0.00 99 1015.1
20260507094525 52 354 0.0 0.0 0.00 0.00 0.00 99 1015.0
20260507094022 52 354 0.0 0.0 0.00 0.00 0.00 99 1015.1
20260507093520 52 354 0.0 0.0 0.00 0.00 0.00 99 1015.2
20260507093018 52 354 0.0 0.0 0.00 0.00 0.00 99 1015.2
20260507092514 52 354 0.0 0.0 0.00 0.00 0.00 99 1015.4
20260507092011 52 354 0.0 0.0 0.00 0.00 0.00 99 1015.1
20260507091508 52 354 0.0 0.0 0.00 0.00 0.00 99 1015.2
20260507091004 52 354 0.0 0.0 0.00 0.00 0.00 99 1015.4
20260507090500 52 354 0.0 0.0 0.00 0.00 0.00 99 1015.1
20260507085956 52 354 0.0 0.0 0.00 0.00 0.00 99 1015.2
20260507085454 52 354 0.0 0.0 0.00 0.00 0.00 99 1015.6
20260507084950 52 354 0.0 0.0 0.00 0.00 0.00 99 1015.6
20260507084447 52 354 0.0 0.0 0.00 0.00 0.00 99 1015.4
20260507083944 52 354 0.0 0.0 0.00 0.00 0.00 99 1015.3
20260507083441 52 354 0.0 0.0 0.00 0.00 0.00 99 1015.4
20260507082937 52 354 0.0 0.0 0.00 0.00 0.00 99 1015.2
20260507082433 52 354 0.0 0.0 0.00 0.00 0.00 99 1015.3
20260507081930 52 354 0.0 0.0 0.00 0.00 0.00 99 1015.3
20260507081426 52 354 0.0 0.0 0.00 0.00 0.00 99 1015.2
20260507080923 52 353 0.0 0.0 0.00 0.00 0.00 99 1015.5
20260507080419 52 354 0.0 0.0 0.00 0.00 0.00 99 1015.6
20260507075914 52 354 0.0 0.0 0.00 0.00 0.00 99 1015.6
20260507075411 52 354 0.0 0.0 0.00 0.00 0.00 99 1015.7
20260507074908 52 340 0.0 0.0 0.00 0.00 0.00 99 1015.4
20260507074404 52 355 0.0 0.0 0.00 0.00 0.00 99 1015.3
20260507073902 52 345 0.0 0.0 0.00 0.00 0.00 99 1015.5
20260507073358 52 345 0.0 0.0 0.00 0.00 0.00 99 1015.4
20260507072856 52 2 0.0 0.0 0.00 0.00 0.00 99 1015.4
20260507072353 52 355 0.0 0.0 0.00 0.00 0.00 99 1015.4
20260507071850 53 355 0.0 0.0 0.00 0.00 0.00 99 1015.4
20260507071348 53 355 0.0 0.0 0.00 0.00 0.00 99 1015.3
20260507070843 53 355 0.0 0.0 0.00 0.00 0.00 99 1015.2
20260507070341 53 355 0.0 0.0 0.00 0.00 0.00 99 1015.3
20260507065838 53 356 0.0 0.0 0.00 0.03 0.03 99 1015.3
20260507065334 53 356 0.0 0.0 0.00 0.03 0.03 99 1015.3
20260507064831 53 356 0.0 0.0 0.00 0.03 0.03 99 1015.5
20260507064330 53 356 0.0 0.0 0.00 0.03 0.03 99 1015.3
20260507063828 53 356 0.0 0.0 0.00 0.03 0.03 99 1015.3
20260507063324 53 356 0.0 0.0 0.00 0.03 0.03 99 1015.3
20260507062821 53 356 0.0 0.0 0.00 0.03 0.03 99 1015.6
20260507062318 53 356 0.0 0.0 0.00 0.03 0.03 99 1015.6
20260507061816 53 356 0.0 0.0 0.00 0.03 0.03 99 1015.3
20260507061314 53 356 0.0 0.0 0.00 0.03 0.03 99 1015.4
20260507060812 53 356 0.0 0.0 0.00 0.03 0.03 99 1015.5
20260507060308 53 356 0.0 0.0 0.00 0.03 0.03 99 1015.4
20260507055805 53 356 0.0 0.0 0.00 0.03 0.03 99 1015.4
20260507055300 53 356 0.0 0.0 0.00 0.03 0.03 99 1015.3
20260507054756 53 356 0.0 0.0 0.00 0.03 0.03 99 1015.5
20260507054253 53 356 0.0 0.0 0.00 0.03 0.03 99 1015.5
20260507053751 53 356 0.0 0.0 0.00 0.03 0.03 99 1015.3
20260507053248 53 356 0.0 0.0 0.00 0.03 0.03 99 1015.7
20260507052747 53 356 0.0 0.0 0.00 0.03 0.03 99 1015.7
20260507052243 53 356 0.0 0.0 0.00 0.03 0.03 99 1015.6
20260507051741 53 356 0.0 0.0 0.00 0.03 0.03 99 1016.0
20260507051237 53 356 0.0 0.0 0.00 0.03 0.03 99 1015.8
20260507050734 53 356 0.0 0.0 0.00 0.03 0.03 99 1015.8
20260507050231 53 356 0.0 0.0 0.00 0.03 0.03 99 1015.7
20260507045728 53 356 0.0 0.0 0.00 0.03 0.03 99 1016.1
20260507045224 53 353 0.0 0.0 0.00 0.03 0.03 99 1015.8
20260507044722 53 353 0.0 0.0 0.00 0.03 0.03 99 1016.0
20260507044218 53 353 0.0 0.0 0.00 0.03 0.03 99 1015.8
20260507043714 53 353 0.0 0.0 0.00 0.03 0.03 99 1016.1
20260507043211 53 354 0.0 0.0 0.00 0.03 0.03 99 1015.9
20260507042708 53 354 0.0 0.0 0.00 0.03 0.03 99 1015.8
20260507042202 53 354 0.0 0.0 0.00 0.03 0.03 99 1015.9
20260507041700 53 354 0.0 0.0 0.00 0.03 0.03 99 1015.9
20260507041156 53 354 0.0 0.0 0.00 0.03 0.03 99 1015.9
20260507040653 53 354 0.0 0.0 0.00 0.03 0.03 99 1016.0
20260507040150 53 354 0.0 0.0 0.00 0.03 0.03 99 1015.8
20260507035646 53 354 0.0 0.0 0.00 0.03 0.03 99 1015.9
20260507035142 53 354 0.0 0.0 0.00 0.03 0.03 99 1015.9
20260507034639 53 353 0.0 0.0 0.00 0.03 0.03 99 1015.9
20260507034136 53 354 0.0 0.0 0.00 0.03 0.03 99 1015.9
20260507033635 53 354 0.0 0.0 0.00 0.03 0.03 98 1016.1
20260507033132 53 354 0.0 0.0 0.00 0.03 0.03 98 1016.1
20260507032629 53 353 0.0 0.0 0.00 0.03 0.03 98 1016.1
20260507032125 53 353 0.0 0.0 0.00 0.03 0.03 97 1015.8
20260507031622 53 353 0.0 0.0 0.00 0.03 0.03 97 1016.0
20260507031118 53 353 0.0 0.0 0.00 0.03 0.03 97 1015.8
20260507030615 53 353 0.0 0.0 0.00 0.03 0.03 97 1015.9
20260507030113 53 354 0.0 0.0 0.00 0.03 0.03 97 1016.0
20260507025610 53 353 0.0 0.0 0.00 0.03 0.03 96 1015.9
20260507025107 53 353 0.0 0.0 0.00 0.03 0.03 96 1015.9
20260507024605 54 353 0.0 0.0 0.00 0.03 0.03 96 1015.8
20260507024102 54 352 0.0 0.0 0.00 0.03 0.03 96 1015.9
20260507023557 54 4 0.0 0.0 0.00 0.03 0.03 95 1015.8
20260507023055 54 349 0.0 0.0 0.00 0.03 0.03 95 1016.0
20260507022551 54 350 0.0 0.0 0.00 0.03 0.03 95 1016.1
20260507022041 54 350 0.0 0.0 0.00 0.03 0.03 94 1016.1
20260507021537 54 349 0.0 0.0 0.00 0.03 0.03 94 1016.1
20260507021034 54 351 0.0 0.0 0.00 0.03 0.03 94 1016.3
20260507020532 54 345 0.0 1.0 0.00 0.03 0.03 94 1016.3
20260507020028 54 347 0.0 1.0 0.00 0.03 0.03 94 1016.1
20260507015526 54 348 0.0 0.0 0.00 0.03 0.03 94 1016.0
20260507015024 54 349 0.0 0.0 0.00 0.03 0.03 94 1016.4
20260507014520 54 346 0.0 1.0 0.00 0.03 0.03 93 1016.3
20260507014016 54 352 0.0 0.0 0.00 0.03 0.03 93 1016.3
20260507013513 55 351 1.0 1.0 0.00 0.03 0.03 93 1016.4
20260507013010 55 347 0.0 1.0 0.00 0.03 0.03 93 1016.4
20260507012507 55 348 1.0 1.0 0.00 0.03 0.03 93 1016.4
20260507012003 55 349 0.0 0.0 0.00 0.03 0.03 92 1016.4
20260507011501 55 346 0.0 0.0 0.00 0.03 0.03 91 1016.7
20260507010956 55 348 0.0 0.0 0.00 0.03 0.03 91 1016.5
20260507010451 55 348 0.0 0.0 0.00 0.03 0.03 91 1016.4
20260507005948 55 341 0.0 0.0 0.00 0.03 0.03 91 1016.4
20260507005445 55 340 1.0 1.0 0.00 0.03 0.03 90 1016.4
20260507004941 55 344 0.0 0.0 0.00 0.03 0.03 89 1016.3
20260507004438 55 346 0.0 0.0 0.00 0.03 0.03 89 1016.3
20260507003936 55 340 0.0 0.0 0.00 0.03 0.03 88 1016.5
20260507003431 55 348 1.0 2.0 0.00 0.03 0.03 88 1016.4
20260507002926 55 345 0.0 0.0 0.00 0.03 0.03 88 1016.4
20260507002422 56 349 1.0 1.0 0.00 0.03 0.03 89 1016.5
20260507001920 56 346 1.0 1.0 0.00 0.03 0.03 88 1016.6
20260507001416 56 341 0.0 1.0 0.00 0.03 0.03 89 1016.6
20260507000914 56 329 2.0 2.0 0.00 0.03 0.03 88 1016.4
20260507000409 56 332 1.0 1.0 0.00 0.03 0.03 88 1016.5
20260506235905 56 347 0.0 0.0 0.00 0.03 0.03 88 1016.2
20260506235403 56 341 1.0 2.0 0.00 0.03 0.03 87 1016.4
20260506234858 56 344 1.0 1.0 0.00 0.03 0.03 87 1016.3
20260506234356 56 336 1.0 1.0 0.00 0.03 0.03 88 1016.2
20260506233854 56 350 0.0 1.0 0.00 0.03 0.03 88 1016.5
20260506233349 56 337 1.0 1.0 0.00 0.03 0.03 88 1016.4
20260506232846 56 343 0.0 0.0 0.00 0.03 0.03 89 1016.6
20260506232342 56 348 1.0 1.0 0.00 0.03 0.03 89 1016.4
20260506231833 56 333 2.0 2.0 0.00 0.03 0.03 89 1016.5
20260506231331 56 341 2.0 2.0 0.00 0.03 0.03 89 1016.6
20260506230828 56 345 2.0 2.0 0.00 0.03 0.03 89 1016.5
20260506230325 56 339 0.0 1.0 0.00 0.03 0.03 89 1016.5
20260506225820 56 347 1.0 1.0 0.00 0.03 0.03 89 1016.4
20260506225318 56 343 1.0 2.0 0.00 0.03 0.03 90 1016.5
20260506224815 56 347 1.0 1.0 0.00 0.03 0.03 90 1016.8
20260506224312 56 326 3.0 3.0 0.00 0.03 0.03 90 1016.5
20260506223809 56 351 0.0 0.0 0.00 0.03 0.03 91 1016.7
20260506223303 56 340 1.0 2.0 0.00 0.03 0.03 90 1016.8
20260506222800 56 338 2.0 2.0 0.00 0.03 0.03 90 1016.8
20260506222255 56 349 1.0 1.0 0.00 0.03 0.03 90 1016.7
20260506221749 56 348 1.0 1.0 0.00 0.03 0.03 90 1017.0
20260506221246 56 348 0.0 0.0 0.00 0.03 0.03 90 1016.9
20260506220744 56 352 1.0 1.0 0.00 0.03 0.03 91 1016.8
20260506220238 56 351 0.0 0.0 0.00 0.03 0.03 90 1017.2
20260506215736 56 350 0.0 0.0 0.00 0.03 0.03 91 1017.0
20260506215231 56 350 0.0 1.0 0.00 0.03 0.03 91 1017.1
20260506214727 55 351 0.0 0.0 0.00 0.03 0.03 91 1017.2
20260506214225 55 352 0.0 0.0 0.00 0.03 0.03 91 1017.2
20260506213723 55 341 1.0 1.0 0.00 0.03 0.03 91 1017.3
20260506213220 55 351 0.0 0.0 0.00 0.03 0.03 92 1017.3
20260506212717 55 346 1.0 2.0 0.00 0.03 0.03 92 1017.2
20260506212212 55 348 0.0 1.0 0.00 0.03 0.03 93 1017.3
20260506211708 55 348 2.0 2.0 0.00 0.03 0.03 92 1017.2
20260506211204 55 345 0.0 1.0 0.00 0.03 0.03 93 1017.3
20260506210702 55 345 1.0 2.0 0.00 0.03 0.03 93 1017.4
20260506210158 55 331 1.0 2.0 0.00 0.03 0.03 93 1017.2
20260506205655 55 346 1.0 1.0 0.00 0.03 0.03 93 1017.3
20260506205150 55 333 2.0 2.0 0.00 0.03 0.03 92 1017.2
20260506204648 55 341 0.0 0.0 0.00 0.03 0.03 93 1017.2
20260506204145 55 346 1.0 1.0 0.00 0.03 0.03 93 1017.3
20260506203643 55 342 1.0 1.0 0.00 0.03 0.03 93 1017.3
20260506203140 55 345 0.0 0.0 0.00 0.03 0.03 93 1017.1
20260506202638 55 344 1.0 2.0 0.00 0.03 0.03 93 1017.2
20260506202133 55 342 1.0 1.0 0.00 0.03 0.03 93 1017.4
20260506201631 55 346 1.0 1.0 0.00 0.03 0.03 93 1017.2
20260506201127 55 347 1.0 1.0 0.00 0.03 0.03 93 1017.5
20260506200624 55 346 0.0 1.0 0.00 0.03 0.03 94 1017.5
20260506200120 55 351 1.0 1.0 0.00 0.03 0.03 93 1017.3
20260506195617 55 331 2.0 2.0 0.00 0.03 0.03 93 1017.3
20260506195114 55 348 1.0 1.0 0.00 0.03 0.03 92 1017.1
20260506194611 55 331 2.0 3.0 0.00 0.03 0.03 93 1017.1
20260506194107 55 349 0.0 1.0 0.00 0.03 0.03 93 1017.2
20260506193605 55 335 2.0 2.0 0.00 0.03 0.03 92 1017.3
20260506193102 55 346 3.0 3.0 0.00 0.03 0.03 92 1017.3
20260506192559 55 345 1.0 2.0 0.00 0.03 0.03 93 1017.3
20260506192055 55 345 1.0 1.0 0.00 0.03 0.03 92 1017.1
20260506191551 55 350 0.0 0.0 0.00 0.03 0.03 92 1017.2
20260506191047 56 11 0.0 0.0 0.00 0.03 0.03 94 1017.1
20260506190545 55 12 0.0 0.0 0.00 0.03 0.03 92 1017.2
20260506190042 55 343 0.0 0.0 0.00 0.03 0.03 94 1017.2
20260506185539 55 343 0.0 0.0 0.00 0.03 0.03 94 1017.2
20260506185036 55 343 0.0 0.0 0.00 0.03 0.03 94 1017.1
20260506184533 55 343 0.0 0.0 0.00 0.03 0.03 95 1017.4
20260506184030 55 342 0.0 0.0 0.00 0.03 0.03 95 1017.2
20260506183526 55 356 0.0 0.0 0.00 0.03 0.03 96 1017.0
20260506183023 54 356 0.0 0.0 0.00 0.03 0.03 96 1017.1
20260506182520 54 358 0.0 0.0 0.00 0.03 0.03 96 1017.1
20260506182017 54 358 0.0 0.0 0.00 0.03 0.03 96 1017.1
20260506181515 54 356 0.0 0.0 0.00 0.03 0.03 96 1016.8
20260506181012 54 355 0.0 1.0 0.00 0.03 0.03 96 1017.0
20260506180508 54 354 0.0 0.0 0.00 0.03 0.03 97 1017.0
20260506180006 54 348 0.0 0.0 0.00 0.03 0.03 97 1016.9
20260506175501 54 348 0.0 0.0 0.00 0.03 0.03 96 1016.7
20260506174958 54 348 1.0 1.0 0.00 0.03 0.03 96 1016.8
20260506174456 54 349 0.0 0.0 0.00 0.03 0.03 96 1016.8
20260506173952 54 343 1.0 1.0 0.00 0.03 0.03 96 1016.9
20260506173450 54 344 1.0 1.0 0.00 0.03 0.03 96 1016.7
20260506172946 54 346 0.0 0.0 0.00 0.03 0.03 96 1016.6
20260506172444 54 346 0.0 0.0 0.00 0.03 0.03 96 1016.7
20260506171940 54 345 0.0 1.0 0.00 0.03 0.03 97 1016.7
20260506171438 54 349 0.0 0.0 0.00 0.03 0.03 97 1016.5
20260506170935 54 354 0.0 0.0 0.00 0.03 0.03 97 1016.7
20260506170431 54 349 0.0 0.0 0.00 0.03 0.03 97 1016.3
20260506165925 54 349 0.0 1.0 0.00 0.03 0.03 97 1016.4
20260506165423 54 349 0.0 0.0 0.00 0.03 0.03 98 1016.6
20260506164918 54 349 0.0 1.0 0.00 0.03 0.03 98 1016.7
20260506164415 54 355 0.0 0.0 0.00 0.03 0.03 98 1016.5
20260506163913 54 351 0.0 0.0 0.00 0.03 0.03 99 1016.3
20260506163407 54 350 0.0 0.0 0.00 0.03 0.03 99 1016.4
20260506162902 54 348 0.0 0.0 0.00 0.03 0.03 98 1016.5
20260506162400 54 345 0.0 0.0 0.00 0.03 0.03 98 1016.5
20260506161852 53 345 0.0 0.0 0.00 0.03 0.03 98 1016.2
20260506161349 53 347 0.0 0.0 0.00 0.03 0.03 99 1016.4
20260506160842 53 346 0.0 0.0 0.00 0.03 0.03 99 1016.7
20260506160339 53 357 0.0 0.0 0.00 0.03 0.03 99 1016.5
20260506155837 53 357 0.0 0.0 0.00 0.03 0.03 99 1016.6
20260506155333 53 357 0.0 0.0 0.00 0.03 0.03 99 1016.5
20260506153450 53 354 0.0 0.0 0.00 0.03 0.03 99 1016.6
20260506152948 53 356 0.0 0.0 0.00 0.03 0.03 99 1016.8
20260506152445 52 356 0.0 0.0 0.00 0.03 0.03 99 1016.5
20260506151943 53 6 0.0 0.0 0.00 0.03 0.03 99 1016.6
20260506151440 53 6 0.0 0.0 0.00 0.03 0.03 99 1016.7
20260506150938 53 6 0.0 0.0 0.00 0.03 0.03 99 1016.9
20260506150433 53 6 0.0 0.0 0.00 0.03 0.03 99 1016.7
20260506145931 52 6 0.0 0.0 0.07 0.03 0.03 99 1016.7
20260506145427 52 6 0.0 0.0 0.07 0.03 0.03 99 1016.4
20260506144925 52 6 0.0 0.0 0.00 0.02 0.02 99 1016.4
20260506144421 53 6 0.0 0.0 0.00 0.02 0.02 99 1016.5
20260506143920 52 6 0.0 0.0 0.00 0.02 0.02 99 1016.6
20260506143416 52 6 0.0 0.0 0.00 0.02 0.02 99 1016.2
20260506142914 52 6 0.0 0.0 0.00 0.02 0.02 99 1016.3
20260506142412 52 6 0.0 0.0 0.00 0.02 0.02 99 1016.1
20260506141910 52 6 0.0 0.0 0.00 0.02 0.02 99 1016.1
20260506141408 52 6 0.0 0.0 0.00 0.02 0.02 99 1016.2
20260506140906 52 6 0.0 0.0 0.00 0.02 0.02 99 1016.0
20260506140402 52 6 0.0 0.0 0.00 0.02 0.02 99 1016.1
20260506135900 52 6 0.0 0.0 0.00 0.02 0.02 99 1016.0
20260506135356 52 6 0.0 0.0 0.00 0.02 0.02 99 1016.0
20260506134852 52 6 0.0 0.0 0.00 0.02 0.02 99 1015.8
20260506134349 52 6 0.0 0.0 0.00 0.02 0.02 99 1015.8
20260506133846 52 6 0.0 0.0 0.00 0.02 0.02 99 1015.9
20260506133342 52 6 0.0 0.0 0.00 0.02 0.02 99 1015.5
20260506132839 52 6 0.0 0.0 0.00 0.02 0.02 99 1015.6
20260506132336 52 6 0.0 0.0 0.00 0.02 0.02 99 1015.5
20260506131835 52 6 0.0 0.0 0.00 0.02 0.02 99 1015.6
20260506131330 52 6 0.0 0.0 0.00 0.02 0.02 99 1015.4
20260506130828 52 6 0.0 0.0 0.00 0.02 0.02 99 1015.5
20260506130324 52 6 0.0 0.0 0.00 0.02 0.02 99 1015.6
20260506125822 52 6 0.0 0.0 0.00 0.02 0.02 99 1015.6
20260506125320 52 6 0.0 0.0 0.00 0.02 0.02 99 1015.7
20260506124818 52 6 0.0 0.0 0.00 0.02 0.02 99 1015.5
20260506124315 52 6 0.0 0.0 0.00 0.02 0.02 99 1015.6
20260506123813 52 6 0.0 0.0 0.00 0.02 0.02 99 1015.6
20260506123311 52 6 0.0 0.0 0.00 0.02 0.02 99 1015.6
20260506122808 52 6 0.0 0.0 0.00 0.02 0.02 99 1015.4
20260506122306 52 6 0.0 0.0 0.00 0.02 0.02 99 1015.6
20260506121803 52 6 0.0 0.0 0.05 0.02 0.02 99 1015.4
20260506121259 52 6 0.0 0.0 0.05 0.02 0.02 99 1015.2
20260506120757 52 6 0.0 0.0 0.05 0.02 0.02 99 1015.2
20260506120254 52 6 0.0 0.0 0.00 0.01 0.01 99 1015.2
20260506115752 52 6 0.0 0.0 0.00 0.01 0.01 99 1015.1
20260506115250 52 6 0.0 0.0 0.00 0.01 0.01 99 1015.3